Theta_e
318 316 314 314 314 315 316 317 318 319 318 317 317 315 314 315 315 313 312 311 311 311 312 312 310 307 306 307 309 310 310 310 310 310 310 310 310 310 309 309 308 309 309 308 307 306 305 305 306 306 305 304 303 303 304 304 305 305 305 305 305 305 305 304 305 304 304 303 303 302 301 299 298 298 298 299 300 301 302 303 304 305 305 306 306
318 316 315 314 313 315 317 317 317 318 318 317 317 317 316 315 316 315 314 312 312 312 312 313 312 310 307 306 307 308 309 310 310 310 309 310 311 310 310 310 309 309 309 310 309 308 307 306 305 305 305 305 305 304 304 304 305 305 305 305 305 304 304 303 303 303 302 302 301 299 298 296 296 296 297 297 297 298 299 300 301 302 303 304 304
318 317 315 314 314 315 317 317 317 318 318 317 317 318 317 317 316 316 315 313 313 313 313 313 313 312 310 309 308 308 309 310 311 310 309 310 311 311 311 310 310 309 309 309 310 309 308 308 306 305 305 305 305 305 305 304 305 305 305 305 305 304 304 303 302 301 300 299 297 296 295 295 296 296 297 297 297 297 298 298 299 300 301 301 301
318 317 316 315 316 317 318 318 318 318 319 318 317 317 317 317 317 316 315 314 314 314 314 314 314 314 313 312 312 311 311 311 311 312 311 310 310 311 311 311 310 310 310 310 310 309 309 309 308 307 306 306 306 306 306 305 304 305 305 305 305 304 303 302 300 298 297 296 295 295 295 296 296 296 296 296 297 297 298 298 298 298 298 299 299
320 319 317 317 318 318 319 319 318 317 318 318 317 317 318 318 317 317 316 315 314 314 314 315 315 314 314 314 314 315 315 314 314 314 313 312 311 311 311 311 311 311 310 311 310 310 309 309 308 308 307 306 306 306 306 306 305 305 305 305 305 304 302 300 298 296 294 294 295 295 296 296 295 295 295 295 296 297 297 297 298 298 297 298 298
321 319 318 319 319 319 320 320 320 320 319 319 318 318 318 318 318 318 316 315 315 315 315 315 315 315 315 315 315 316 316 316 316 316 315 314 313 313 312 312 312 312 311 312 312 311 310 309 309 309 308 307 307 307 306 306 306 305 305 305 304 304 302 299 297 296 295 295 296 296 296 295 295 295 295 295 296 297 297 297 297 297 297 297 297
321 320 319 319 319 319 320 320 320 320 319 319 319 319 319 318 319 319 318 316 316 316 316 316 315 315 315 315 316 316 317 317 317 317 316 316 316 315 314 313 313 312 312 312 312 312 312 311 310 309 308 308 308 307 306 306 306 305 305 304 304 303 301 300 298 297 296 296 296 296 295 295 295 295 295 295 296 297 297 297 297 297 296 296 296
320 319 319 319 319 319 320 319 319 318 319 319 319 319 319 319 319 319 318 317 317 317 316 316 316 316 316 316 316 316 317 317 317 317 317 317 317 316 316 315 314 313 312 312 312 312 312 312 311 309 309 308 308 307 307 306 306 305 305 304 304 303 301 300 299 298 297 297 296 296 296 296 295 295 295 295 296 297 297 297 297 297 296 296 296
319 319 319 319 319 319 319 319 319 318 319 319 319 319 318 319 318 318 317 316 316 315 315 316 317 317 317 318 317 317 318 318 318 318 318 317 317 317 317 317 316 316 315 315 314 313 312 312 312 311 309 309 308 308 307 306 306 305 304 304 303 302 301 300 300 299 298 297 296 296 296 296 296 295 295 295 296 297 297 297 297 296 296 296 295
318 319 319 319 319 320 320 320 320 319 319 319 318 318 318 318 317 317 317 316 315 315 315 316 317 316 317 318 318 318 317 317 317 316 316 315 315 315 316 316 316 316 316 316 315 314 313 313 312 311 310 309 308 308 307 306 306 305 304 303 302 302 302 301 300 299 298 298 297 297 296 296 296 296 295 296 296 296 296 296 296 296 296 296 295
318 318 318 318 319 319 319 320 321 320 320 320 319 318 317 317 316 317 317 317 316 316 317 317 317 317 318 318 318 318 317 317 317 316 317 317 317 317 317 317 317 317 317 316 316 316 315 314 313 312 310 309 308 308 307 306 305 304 303 302 302 302 302 301 300 299 299 298 297 297 296 296 296 296 296 296 296 296 296 296 296 296 295 295 295
315 316 316 316 318 318 319 320 321 320 320 319 318 317 317 316 317 318 318 318 318 318 317 317 317 317 317 318 318 317 317 316 317 317 317 316 316 316 317 318 318 318 318 318 318 317 316 314 313 311 310 309 308 307 305 305 304 303 303 302 302 302 302 301 300 299 299 298 298 297 297 296 296 296 296 296 296 296 296 296 295 295 294 294 294
310 313 315 316 316 318 319 319 319 319 320 319 318 317 316 316 318 319 319 318 318 317 317 317 316 315 316 317 317 317 316 316 316 314 312 311 309 309 311 313 316 318 318 318 318 317 316 314 312 310 308 308 307 305 305 305 304 303 302 302 301 301 301 300 300 300 299 298 298 297 297 296 296 296 296 296 296 296 295 295 294 294 293 293 293
307 309 312 313 314 315 316 317 317 318 318 318 318 318 317 317 319 318 317 317 317 317 316 317 316 316 316 317 317 316 314 314 313 311 311 309 307 306 307 311 314 317 318 317 316 315 315 313 312 309 307 306 305 305 306 306 304 303 302 301 301 301 301 300 300 299 299 298 298 297 297 296 296 296 296 295 295 294 294 293 293 293 292 292 292
306 307 308 310 311 312 313 314 315 316 316 316 317 318 318 318 317 316 316 316 316 316 317 317 317 316 316 315 314 314 313 312 312 312 311 309 307 306 309 312 315 316 316 315 314 313 312 312 311 308 306 305 305 305 305 305 303 302 302 301 301 301 301 300 300 299 299 299 298 297 296 296 295 295 295 294 294 293 293 292 292 292 292 291 292
305 306 307 309 310 311 312 312 313 314 313 313 313 314 313 313 313 313 314 313 314 314 314 314 314 313 313 313 313 312 312 312 312 311 311 310 308 308 310 312 313 314 313 312 312 311 311 311 310 307 306 305 305 304 304 304 303 302 301 301 301 301 301 300 300 299 299 298 297 297 296 296 295 295 294 293 293 292 292 292 292 291 291 291 291
305 305 306 307 309 310 310 310 309 309 308 308 309 309 309 309 309 310 310 311 311 311 311 311 311 311 311 311 311 312 312 312 312 311 311 310 308 308 310 310 311 311 311 311 310 310 310 310 309 307 306 305 305 304 304 304 303 301 301 301 301 301 300 299 298 298 297 297 296 296 295 294 294 293 293 292 292 292 292 291 292 291 291 290 290
304 304 304 305 307 308 309 309 309 308 307 306 307 308 308 308 308 307 308 308 308 308 309 309 310 311 310 310 311 312 312 312 312 311 311 310 309 308 309 309 309 309 308 308 307 306 306 306 305 305 305 305 304 303 303 303 302 302 301 301 300 299 298 298 297 296 296 295 295 294 294 293 293 292 292 292 292 292 292 291 291 291 291 290 290
304 304 304 304 305 306 308 309 309 309 308 306 307 308 308 307 307 306 307 307 307 307 307 307 309 311 311 311 312 313 313 313 312 311 310 310 309 308 308 308 307 307 306 305 305 304 303 303 303 303 303 302 302 301 301 301 301 300 300 299 299 298 297 297 296 296 295 294 294 293 293 293 292 292 292 292 292 292 292 291 291 291 291 291 291
303 304 304 304 304 305 306 307 308 308 308 307 307 307 307 307 307 306 306 306 306 306 305 305 307 309 311 312 313 313 313 312 311 310 309 309 308 308 307 306 306 305 305 304 304 303 302 302 301 301 301 301 300 300 300 300 299 299 298 298 297 296 296 295 295 294 294 293 293 292 292 292 292 292 291 291 291 291 291 292 292 292 291 291 291
303 303 304 304 304 304 304 305 306 307 307 308 308 308 308 307 307 307 307 306 305 304 304 304 305 307 309 311 312 312 311 311 310 309 308 308 308 307 306 305 305 304 304 303 303 302 301 301 300 299 299 299 299 298 298 298 297 297 296 296 295 295 294 294 293 293 292 292 292 292 291 291 291 291 291 290 290 290 291 291 291 291 291 291 291
303 303 303 303 304 304 304 304 305 305 306 306 306 307 307 307 308 308 307 307 306 305 305 305 305 305 307 309 310 310 310 309 308 308 307 307 306 306 305 304 303 303 302 302 301 300 299 299 298 297 297 297 297 297 297 296 296 295 294 294 293 293 293 293 292 292 292 291 291 291 291 291 291 291 290 290 290 290 290 291 291 291 291 291 291
302 302 302 303 303 303 304 304 304 304 304 304 304 304 305 305 307 307 306 307 306 306 306 305 305 305 306 307 309 309 309 308 308 307 307 306 305 304 303 303 302 301 300 299 299 298 297 297 296 296 296 296 296 296 295 295 294 293 293 293 293 293 292 292 292 291 291 291 290 290 290 291 291 290 290 290 290 290 290 290 290 291 291 291 291
301 301 301 302 302 303 303 304 304 304 304 304 304 304 303 303 303 304 304 305 306 306 306 305 305 305 306 306 308 308 308 308 307 306 305 304 303 302 301 300 300 299 298 298 297 297 296 296 296 296 296 296 295 295 294 293 293 293 292 292 292 292 292 291 291 291 291 291 291 291 290 290 290 289 289 289 289 289 289 289 290 290 290 290 291
301 301 301 301 302 303 303 303 304 304 304 304 304 304 303 303 303 302 303 303 304 305 305 305 305 305 305 306 306 307 306 306 305 304 303 302 301 300 298 297 296 296 296 296 295 295 296 295 295 295 295 294 294 293 293 293 293 292 292 292 291 291 291 291 291 291 291 290 290 290 289 289 289 288 288 288 288 288 288 288 289 289 289 290 290
300 301 301 302 302 302 302 302 303 304 304 305 304 304 303 303 303 302 302 302 302 304 305 305 304 304 305 305 305 305 304 303 302 301 300 299 299 297 296 295 295 294 294 294 294 295 295 295 294 294 293 293 293 292 292 292 292 291 291 291 291 291 290 290 290 290 290 290 289 289 288 288 288 288 288 287 288 288 288 288 289 289 289 290 290
300 300 300 301 301 302 301 301 302 303 304 304 304 303 303 303 303 303 302 302 302 302 304 304 304 304 304 303 303 303 302 301 300 299 298 297 296 295 294 294 294 294 294 294 295 295 294 293 293 292 292 292 292 292 291 291 291 291 291 290 290 290 290 290 290 290 289 289 288 288 288 287 287 287 287 287 287 287 288 288 288 289 289 289 289
300 300 300 300 301 301 301 302 302 302 303 303 302 303 303 303 303 302 302 302 302 302 302 303 303 303 303 303 303 303 302 300 299 297 297 296 295 294 294 294 294 295 295 295 294 294 293 292 292 292 292 292 291 291 291 290 290 290 290 290 290 290 290 290 290 289 289 288 287 287 287 287 287 287 287 287 286 287 287 288 288 288 289 289 289
299 300 300 299 300 300 301 302 302 301 302 302 302 302 302 302 302 302 302 302 301 301 301 302 302 303 304 304 304 303 302 301 299 297 296 295 294 294 294 294 295 295 295 293 293 292 292 292 292 292 291 291 291 290 290 290 290 290 290 290 290 289 289 289 288 288 287 287 287 287 286 286 286 286 286 286 287 287 287 287 288 288 288 288 288
299 300 300 300 299 299 300 301 301 301 301 301 301 301 302 302 302 302 301 301 301 302 303 303 304 305 305 305 304 303 303 302 299 296 294 293 293 294 295 295 295 294 293 292 292 292 292 292 291 291 291 290 290 290 290 290 290 290 289 289 289 288 288 287 287 287 287 287 286 286 286 286 286 286 286 287 287 287 287 287 287 288 288 288 288
298 299 299 299 300 300 300 300 300 300 300 300 300 300 301 301 301 301 301 301 301 302 304 305 306 306 305 305 304 303 302 300 298 295 293 292 293 295 295 294 293 292 292 292 292 292 291 291 291 290 290 290 290 290 290 289 289 289 288 288 287 287 287 287 287 287 286 286 286 286 286 286 286 286 287 287 287 287 287 287 288 288 288 288 288
297 297 298 298 299 299 300 300 299 299 300 299 299 299 300 300 300 301 302 303 304 304 305 306 306 305 305 305 304 303 301 298 295 293 292 293 294 294 293 292 292 292 292 292 292 291 291 291 290 290 290 290 290 289 289 289 288 288 287 287 287 287 287 287 287 287 287 286 286 286 286 286 287 287 287 287 287 287 287 287 287 288 288 288 288
295 296 297 297 298 298 299 300 300 299 299 299 299 298 299 299 299 300 301 303 305 305 306 306 305 305 305 304 303 302 300 296 293 293 294 294 293 292 291 292 292 292 292 292 292 291 291 290 290 290 290 289 289 289 289 288 287 287 287 287 287 287 287 287 287 287 287 287 286 286 287 287 287 287 287 287 287 287 287 287 287 287 288 288 288
294 294 295 296 296 297 298 299 300 300 300 300 300 299 299 299 299 300 301 302 303 303 304 304 304 303 303 302 301 300 297 294 293 294 294 292 291 291 292 292 292 292 292 292 291 291 290 290 290 290 289 289 289 288 288 287 287 287 287 287 288 288 288 288 287 287 287 287 287 287 287 287 287 287 287 287 287 287 287 287 287 287 287 288 288
293 293 294 294 295 296 296 297 299 300 300 300 300 300 299 299 300 301 301 301 301 301 300 301 300 300 300 300 298 296 295 294 293 293 291 291 291 292 292 292 292 292 292 291 291 290 290 290 290 289 289 289 288 288 287 287 287 288 288 288 288 288 288 288 287 287 287 287 287 287 287 287 287 287 287 287 287 287 287 287 287 287 287 287 288
292 293 293 293 294 295 295 296 297 299 299 300 300 300 299 300 300 300 301 301 301 300 298 297 296 296 296 296 295 294 293 292 292 291 291 291 292 292 292 292 292 292 291 291 290 290 290 289 289 289 289 288 287 287 287 287 288 289 289 289 289 288 288 287 286 286 286 286 287 287 287 287 287 287 287 287 287 287 287 287 287 287 287 287 287
293 293 293 293 293 294 295 295 296 298 299 300 300 300 299 299 299 300 300 300 299 298 296 295 294 293 292 292 292 292 291 291 291 291 292 292 292 292 292 292 291 291 291 290 290 290 289 289 289 288 288 287 287 287 288 288 289 289 289 289 288 287 286 286 286 286 286 286 286 287 287 287 287 287 287 287 287 287 287 287 287 287 287 287 287
294 294 293 293 293 293 294 295 296 297 299 300 299 299 298 298 298 299 299 298 298 296 295 293 292 292 290 290 290 290 291 291 291 292 292 292 292 292 292 291 291 291 290 290 290 290 289 289 289 288 287 287 288 288 289 289 289 289 289 288 287 286 285 285 285 285 286 286 286 287 287 287 287 287 287 287 287 287 287 287 287 287 287 287 287
295 295 295 294 294 294 294 294 295 297 298 299 298 297 297 296 296 297 297 296 295 294 293 291 291 291 290 290 290 291 291 292 292 292 292 292 292 291 291 291 290 290 290 290 290 289 289 289 288 287 287 288 289 289 289 289 289 289 289 287 286 284 284 284 285 285 286 286 286 287 287 287 287 287 287 287 287 287 287 287 287 287 287 287 288
296 296 295 295 295 294 294 294 295 296 297 298 297 296 295 295 296 296 295 294 293 292 291 290 290 291 291 291 292 292 292 292 292 292 292 291 291 291 291 291 290 290 290 290 290 289 289 289 288 287 288 289 289 289 289 289 289 289 288 286 284 284 284 284 285 285 286 286 287 287 287 287 287 287 287 287 287 287 287 287 288 288 288 288 288
296 296 296 295 295 295 295 295 295 296 297 298 297 296 294 293 294 295 294 293 291 291 290 290 291 292 292 293 293 293 293 293 292 292 292 291 291 291 291 290 290 290 290 289 289 289 289 288 288 288 289 289 289 289 289 289 289 288 287 285 284 284 284 285 285 286 286 287 288 288 287 287 287 287 287 287 287 288 288 288 288 288 288 288 288
296 296 296 295 294 295 295 295 295 296 296 297 297 296 294 293 292 292 292 291 291 291 291 291 292 293 293 293 293 293 293 293 292 292 292 291 291 291 290 290 290 290 289 289 289 289 289 289 288 288 289 289 289 289 289 289 289 288 286 284 284 284 285 286 286 287 288 288 289 288 288 287 287 287 287 287 288 288 288 288 288 288 288 288 289
296 296 295 294 294 295 296 296 296 295 295 295 294 294 294 293 292 291 291 290 291 292 292 292 293 293 292 292 292 292 293 292 292 292 292 291 291 291 290 290 290 289 289 289 289 289 289 289 289 289 289 289 289 289 289 288 288 286 284 284 284 285 286 288 288 288 289 289 289 289 288 288 287 287 287 288 288 288 288 288 288 288 289 289 289
296 295 295 294 294 295 295 296 295 294 294 293 293 292 292 292 291 291 291 291 292 293 293 293 292 292 292 292 292 292 292 292 292 292 291 291 291 290 290 290 290 289 289 289 289 288 289 289 289 289 289 289 289 288 288 288 287 285 284 284 285 286 288 289 289 289 289 289 289 289 288 288 287 287 287 288 288 288 288 288 289 289 289 289 289
295 295 294 294 294 294 294 294 293 293 292 292 292 291 290 291 291 291 292 292 292 293 293 292 292 292 292 292 292 292 291 292 292 291 291 291 290 290 290 290 289 289 289 289 289 288 288 289 289 289 289 289 288 288 287 287 286 285 284 284 286 288 289 290 290 290 290 290 290 289 288 288 288 287 287 288 288 288 288 289 289 289 289 289 289
294 294 294 294 294 293 293 293 293 293 292 292 292 292 292 292 293 293 293 293 292 292 292 292 292 292 293 293 292 292 291 291 291 291 291 290 290 290 289 289 289 289 289 289 289 288 288 288 289 289 289 289 288 287 287 286 286 285 284 285 287 289 290 291 290 290 290 290 289 289 289 288 288 288 288 288 288 288 288 289 289 290 289 290 290
294 294 294 293 293 293 293 293 293 293 293 293 294 294 293 293 293 293 293 293 292 292 293 293 293 293 293 293 292 292 291 291 291 290 290 290 289 289 289 289 288 288 288 288 288 288 288 288 289 289 289 288 287 286 286 286 286 285 284 286 288 290 291 291 290 290 290 290 289 289 288 288 288 288 288 288 288 288 289 289 290 290 290 290 290
294 294 293 293 293 293 293 293 294 294 294 294 294 294 293 293 293 293 292 293 293 293 294 293 293 293 292 292 291 291 291 291 290 290 289 289 289 289 288 288 288 288 288 288 288 288 288 288 289 289 288 288 287 286 286 286 286 285 285 286 288 290 290 291 290 290 290 289 289 288 288 288 288 288 288 288 288 289 289 289 290 290 291 291 291
295 294 294 294 294 294 294 294 294 294 294 294 293 293 292 292 292 292 292 293 292 292 292 292 291 291 291 291 291 290 290 290 289 289 289 288 288 288 288 287 287 287 287 288 288 288 288 288 289 289 288 287 287 286 286 286 286 285 285 286 288 290 290 290 290 290 290 289 289 288 288 288 288 288 288 288 288 289 289 289 290 290 290 291 291
295 295 295 294 294 294 294 294 293 293 293 293 292 292 291 291 291 291 291 291 291 290 290 290 290 290 290 290 290 290 289 289 288 288 288 288 287 287 287 287 286 286 287 287 287 287 288 288 289 288 287 287 287 287 286 286 287 286 285 286 288 289 290 290 290 290 290 290 289 289 288 288 288 288 288 288 288 289 289 290 290 290 290 291 291
295 294 294 293 293 293 293 293 292 292 292 292 291 290 290 289 289 289 289 289 289 289 289 289 289 289 289 289 289 289 288 288 288 287 287 287 286 286 286 286 286 286 286 287 287 287 288 288 288 288 287 287 287 287 286 286 287 286 285 285 286 288 289 290 290 290 290 290 289 289 289 288 288 288 288 288 288 289 289 290 290 290 290 290 290
Wind_Speed
42 40 37 36 36 36 32 30 31 30 31 33 33 29 25 25 25 24 22 22 20 20 19 17 16 16 17 18 17 16 15 13 12 11 10 9 8 8 8 8 7 6 6 6 4 4 3 4 4 4 5 5 5 5 4 5 6 7 7 7 7 8 9 9 6 8 12 14 17 19 21 22 22 22 23 22 21 20 19 18 19 19 18 18 18
40 38 37 39 40 38 32 31 32 30 29 31 33 32 28 26 27 26 25 24 22 20 19 18 17 16 16 17 17 16 15 14 13 12 12 11 10 10 9 8 8 7 7 6 5 4 3 3 2 2 2 2 2 4 4 3 4 5 6 6 6 7 9 11 11 9 13 18 19 20 22 22 22 22 23 22 22 21 19 19 19 18 18 18 18
35 35 37 40 40 37 33 31 29 24 24 29 32 30 27 27 28 29 29 27 24 23 21 19 18 17 16 16 16 15 14 14 14 13 12 11 11 10 10 9 9 8 7 7 6 6 6 4 3 3 2 2 1 1 2 2 2 3 4 4 5 7 8 11 12 11 13 18 20 21 22 22 21 21 22 21 20 21 21 20 19 19 18 19 18
29 31 35 38 37 35 29 27 25 22 22 27 30 28 25 26 27 28 29 29 27 24 23 21 20 19 17 16 15 15 14 14 14 14 13 12 11 11 11 10 10 9 8 7 7 8 7 7 6 5 4 4 4 3 2 2 1 1 2 3 4 6 8 9 12 12 13 16 18 19 20 20 19 21 23 23 21 21 21 21 20 20 20 20 19
26 28 33 35 33 27 22 22 25 26 26 26 27 25 23 22 22 23 23 25 26 25 23 22 21 21 20 17 16 15 14 14 14 14 14 13 13 12 12 12 11 11 10 8 8 9 9 9 8 8 7 6 6 5 4 4 3 2 2 3 3 5 7 8 11 12 13 15 17 17 18 19 20 21 24 25 24 23 22 22 22 23 23 22 22
24 27 28 28 24 18 17 20 24 27 29 28 25 23 22 18 16 17 17 16 17 19 18 16 17 20 21 19 17 15 14 14 14 14 14 14 14 14 14 14 13 13 14 12 11 11 11 11 10 10 11 9 8 8 7 6 5 4 3 4 4 5 7 9 11 12 12 13 14 16 19 20 22 23 25 26 25 24 27 27 26 26 27 27 26
22 22 22 21 17 13 13 17 20 25 27 25 21 19 21 19 15 16 18 16 13 12 14 15 16 20 23 22 20 17 15 16 16 15 15 15 16 16 17 16 16 17 17 16 15 14 13 12 13 13 13 12 11 11 10 9 7 6 5 5 6 7 8 10 11 11 12 12 13 16 18 19 21 23 24 25 24 24 28 31 31 31 31 30 30
17 17 17 16 14 12 14 16 17 21 21 20 18 16 16 16 14 13 16 16 12 10 14 17 18 20 22 23 22 20 19 19 18 18 18 17 17 18 18 19 19 19 20 19 19 19 17 15 16 16 15 15 14 13 12 11 9 8 7 6 7 7 8 10 11 10 10 10 12 14 17 19 21 23 25 27 26 25 26 26 28 31 32 32 30
14 14 13 12 11 13 16 17 17 18 17 16 17 16 13 11 11 11 12 14 14 15 20 22 21 24 26 25 25 23 21 20 18 17 17 17 17 18 19 19 20 21 22 22 23 23 21 20 19 19 18 17 16 16 14 13 11 9 8 7 7 7 8 8 9 8 7 9 11 13 16 18 20 21 24 24 22 22 24 24 25 27 31 33 29
14 14 15 14 14 15 15 17 20 20 18 16 15 16 17 16 18 20 21 23 24 24 27 27 26 28 30 28 27 24 20 17 15 14 15 15 15 16 18 19 19 20 22 23 24 24 24 24 23 22 20 19 18 17 16 14 12 10 8 8 8 7 7 7 6 5 5 7 8 10 13 15 16 17 18 19 19 21 23 24 25 26 28 31 29
10 14 17 17 18 20 19 20 21 21 22 23 21 21 22 22 23 23 23 23 22 21 25 29 30 31 30 27 26 23 18 16 15 13 13 12 11 13 15 17 18 19 21 22 23 24 25 26 26 24 22 20 20 18 17 15 12 9 9 9 9 8 7 6 5 4 4 5 7 8 9 11 14 14 15 17 19 21 22 22 23 25 24 22 21
6 10 11 12 17 22 24 23 21 21 24 24 23 23 22 22 24 24 22 21 20 21 27 31 30 28 28 26 23 19 17 14 11 9 8 8 10 11 12 14 15 17 19 21 22 23 23 25 27 25 23 21 21 19 16 13 10 9 9 9 9 9 8 7 6 5 5 6 7 8 9 10 12 12 13 16 18 20 21 20 20 21 22 19 18
2 5 8 10 14 19 22 23 22 23 23 22 22 23 23 25 25 23 20 20 22 24 26 27 25 25 27 23 17 13 10 8 6 6 8 10 12 13 14 14 15 15 16 18 20 21 22 23 24 23 22 21 20 19 17 12 10 10 10 10 9 8 8 7 6 6 7 7 8 10 10 9 10 11 11 13 15 17 19 20 21 21 22 22 23
7 3 7 12 15 16 18 20 20 20 21 21 22 23 24 25 25 22 21 21 23 24 24 24 25 24 21 15 10 7 5 4 5 7 10 13 14 14 13 14 15 15 15 14 16 17 19 21 20 20 21 20 19 18 15 13 11 11 11 10 9 8 8 8 8 8 8 9 10 11 10 9 9 10 11 11 13 15 18 20 22 23 25 26 27
10 7 3 5 10 13 16 19 18 18 18 19 19 20 20 20 19 19 18 18 20 22 22 21 21 18 13 10 7 5 4 4 6 8 11 13 14 12 10 10 12 13 13 12 11 12 14 17 18 17 18 18 17 14 12 10 10 12 11 11 10 9 9 10 10 10 10 10 11 10 10 10 9 10 11 13 15 16 18 20 22 24 26 27 28
15 11 7 4 5 9 11 13 14 15 16 17 17 17 16 16 15 15 14 14 14 14 14 13 11 10 8 7 5 4 4 6 7 10 12 13 13 11 9 9 10 10 10 9 8 8 10 14 15 14 15 16 14 12 9 9 10 13 13 11 11 11 11 11 11 11 10 10 9 9 9 10 12 13 15 16 18 18 19 20 21 22 22 22 23
21 18 13 8 3 7 10 11 12 13 13 13 13 14 13 12 12 12 11 11 11 9 8 7 5 4 4 4 4 4 6 6 7 8 10 10 11 10 9 8 8 8 6 5 5 5 6 9 11 12 13 13 12 11 11 11 12 13 12 11 11 10 9 8 8 8 8 8 8 9 11 12 14 15 16 16 17 18 18 18 18 19 19 17 15
22 20 18 15 8 1 6 7 6 6 6 8 9 9 9 9 8 8 8 8 8 7 5 4 3 3 4 4 5 6 6 6 6 6 7 7 8 8 7 6 5 4 2 1 1 2 4 6 8 9 10 10 10 9 9 10 10 11 10 10 9 8 7 7 7 7 8 9 10 11 12 13 14 15 16 16 16 15 16 16 16 17 18 17 15
21 18 16 18 14 7 4 6 7 6 4 5 7 8 8 7 5 5 6 5 5 5 4 3 3 4 6 7 7 8 7 7 6 4 4 4 5 5 4 3 2 1 2 3 5 5 5 6 6 6 7 7 7 7 6 6 7 7 7 8 7 7 8 9 10 12 12 13 14 14 15 15 15 16 16 16 16 15 15 15 16 17 20 21 20
18 17 16 17 14 8 4 4 8 10 8 8 9 9 8 6 5 4 4 4 3 3 3 2 2 2 5 7 9 9 8 7 5 4 3 3 3 3 3 3 2 3 4 4 5 5 4 4 4 4 5 5 4 4 3 3 4 4 5 5 5 6 8 10 11 12 13 14 15 15 15 15 16 16 16 16 16 16 15 16 16 18 21 24 24
13 14 16 17 13 7 5 4 4 7 8 10 11 10 9 8 7 7 6 5 4 3 3 2 1 2 4 6 8 8 7 6 5 4 3 2 3 3 3 4 4 4 4 5 5 4 5 4 4 4 3 3 2 1 1 1 2 3 4 5 6 7 8 9 10 11 12 13 13 14 15 16 16 17 17 18 18 17 16 16 17 18 21 23 25
14 14 15 15 13 10 8 6 2 3 4 6 7 7 8 9 9 9 9 8 6 5 4 3 2 2 3 5 7 7 7 6 5 4 3 3 3 3 3 3 4 4 5 5 5 4 5 5 5 5 3 2 1 0 1 3 4 5 5 5 6 7 8 9 10 11 12 13 14 16 16 17 18 19 19 19 19 18 18 18 18 19 21 23 24
17 15 15 15 15 15 14 10 5 4 4 4 4 4 5 6 7 7 7 7 6 5 4 4 4 5 6 6 7 8 8 7 6 5 4 4 4 3 3 3 4 4 4 4 4 5 6 6 5 4 2 0 2 3 5 6 6 6 5 5 6 7 8 9 10 11 13 14 16 17 18 18 20 21 22 22 22 22 22 22 22 22 23 24 25
18 18 17 17 17 18 19 17 15 14 12 10 8 7 6 5 5 5 5 5 6 6 7 7 8 8 8 8 9 9 9 8 7 7 6 5 4 4 3 4 4 4 3 3 5 6 6 5 3 1 2 3 4 5 6 6 5 4 4 4 5 6 7 9 10 12 14 15 16 18 19 20 21 23 24 24 25 25 25 26 26 25 25 26 26
16 17 19 19 20 20 19 20 23 24 23 21 16 12 11 10 8 7 6 5 6 7 8 9 10 9 9 9 10 11 11 10 10 8 7 6 5 4 4 4 3 3 3 4 5 5 4 3 2 2 3 3 3 4 4 4 4 3 2 3 5 6 8 10 12 13 15 16 17 19 20 21 23 24 25 26 26 26 26 27 27 27 26 27 27
17 16 16 17 20 21 19 19 21 22 23 25 23 19 17 16 13 10 8 7 6 7 9 10 10 10 11 11 11 12 12 12 11 9 8 7 6 6 5 4 3 3 3 4 5 4 3 1 0 1 2 3 4 5 5 5 5 4 4 5 7 9 11 12 13 14 16 17 19 20 22 24 25 26 27 27 26 26 26 26 27 26 26 26 27
20 18 16 14 16 18 20 21 23 23 25 26 26 23 20 18 15 13 11 9 7 7 8 9 10 10 11 12 12 12 12 12 12 11 10 9 8 7 6 5 4 3 3 3 3 3 3 3 4 5 5 6 6 5 5 5 5 6 7 8 10 11 13 14 15 16 18 20 21 23 24 25 26 27 27 26 26 25 24 25 26 26 26 26 26
21 21 20 17 14 13 14 17 19 21 23 24 23 22 20 18 17 15 12 10 10 10 10 10 10 11 12 12 12 12 13 14 14 13 12 10 9 8 7 6 5 4 3 3 4 5 6 7 7 6 5 4 5 6 6 6 7 8 9 10 11 13 14 15 17 19 20 22 23 25 26 26 26 26 25 24 24 24 23 23 24 26 25 25 24
22 22 22 21 18 14 10 9 10 12 17 20 20 19 18 18 17 15 13 13 13 12 11 10 10 11 12 12 12 13 14 15 14 13 11 10 9 9 8 7 5 4 3 3 6 8 9 8 6 4 4 6 7 7 8 8 9 10 12 13 14 15 16 17 19 20 21 23 24 25 25 25 25 24 23 23 24 24 23 22 23 24 24 23 23
21 22 21 20 21 18 12 9 7 8 12 16 17 17 16 16 16 15 14 14 12 11 9 8 7 8 10 12 13 13 12 11 12 12 11 10 9 8 7 6 4 3 4 6 8 8 8 7 6 6 6 7 8 8 9 10 12 13 15 16 16 16 17 18 19 21 22 23 23 23 23 23 23 23 23 23 24 25 24 23 23 23 23 23 23
21 23 22 21 20 19 16 14 12 10 10 13 15 15 14 13 13 14 14 13 11 10 9 8 7 7 9 10 12 13 10 9 11 13 12 11 9 7 6 5 4 5 7 8 9 8 7 7 7 7 6 7 7 8 9 11 13 15 16 16 17 17 19 21 22 23 24 24 24 23 23 23 23 23 24 24 25 25 25 24 23 23 22 23 23
22 23 23 23 21 19 17 16 16 15 13 14 16 16 13 10 9 10 11 12 12 11 11 10 10 9 9 9 10 11 10 10 12 13 12 11 9 7 7 6 7 8 8 8 8 8 7 7 7 6 6 6 7 8 10 12 14 15 16 17 19 20 22 23 25 26 27 26 25 24 24 24 24 25 25 25 25 25 25 24 23 23 23 23 23
23 24 24 24 22 20 18 17 17 19 19 18 18 17 15 13 11 9 8 10 11 12 12 11 10 10 9 10 10 10 11 13 15 14 13 11 10 9 9 9 9 8 7 6 7 8 7 6 6 6 6 6 8 9 11 12 13 14 16 18 20 22 24 26 27 28 28 26 25 25 25 26 26 26 26 26 26 25 25 24 24 23 22 22 23
26 26 26 25 24 23 21 19 17 19 20 20 20 20 20 20 19 16 14 12 12 11 11 11 10 9 10 12 12 12 13 16 16 15 13 12 12 12 12 11 10 8 6 5 7 7 5 5 5 5 6 7 9 10 11 12 13 14 17 20 22 24 26 27 28 28 28 27 27 27 27 28 28 27 27 27 26 25 24 24 24 23 22 22 22
28 28 28 27 27 26 24 22 20 18 19 20 22 23 24 24 24 22 19 17 16 14 13 12 12 12 12 13 14 15 17 18 16 15 14 14 14 14 13 10 9 7 6 6 6 5 5 5 5 5 6 8 8 9 10 11 13 16 19 22 25 26 28 29 29 29 29 29 29 29 29 29 29 27 26 26 25 24 24 24 23 23 22 22 22
29 29 29 29 29 29 28 26 24 22 22 22 22 24 26 26 25 22 20 19 18 17 16 15 15 14 13 15 16 18 19 18 17 16 16 15 14 13 11 10 9 8 7 6 5 4 4 4 4 5 6 7 7 8 10 12 15 18 21 23 25 27 28 29 29 29 29 28 28 29 29 29 28 27 25 25 25 24 24 24 23 23 23 23 23
29 29 29 28 28 29 30 29 27 25 25 25 24 25 26 26 25 22 21 20 20 20 19 19 19 19 19 19 20 20 20 19 18 17 16 14 13 11 10 10 10 8 7 6 5 4 4 4 5 5 5 6 7 9 11 14 17 19 21 22 24 26 27 27 27 27 27 27 27 28 28 28 27 26 25 24 24 24 24 24 24 24 24 23 23
28 28 28 28 27 27 28 28 28 27 25 25 26 26 25 25 24 23 23 22 22 22 23 24 25 26 26 24 23 22 22 21 19 17 15 14 13 12 11 10 9 7 6 6 5 4 4 4 4 4 5 6 8 10 13 16 18 19 21 23 25 26 26 26 26 26 25 25 26 27 27 27 27 27 25 24 25 25 24 24 24 23 24 23 22
28 28 29 28 27 27 27 27 28 27 25 25 25 26 27 26 25 24 24 24 24 25 26 27 27 28 29 27 25 24 23 21 19 18 16 15 13 11 10 9 8 6 6 6 5 4 4 4 4 4 5 6 8 11 14 16 17 19 22 24 26 26 26 26 25 25 24 25 26 27 27 27 27 27 26 25 25 25 25 25 24 23 23 23 22
26 27 28 28 27 27 26 26 27 27 26 25 24 25 26 27 27 27 26 26 27 27 28 28 29 29 29 28 26 25 23 22 20 18 16 15 13 11 10 8 7 5 5 6 5 4 3 3 4 4 5 6 9 13 15 16 17 20 23 25 25 26 26 25 24 24 24 24 26 27 27 28 28 27 26 26 25 25 25 25 24 24 23 23 24
24 24 26 27 27 26 25 25 26 26 26 25 25 25 25 25 27 29 29 29 28 28 27 27 29 29 27 26 24 22 22 22 20 17 15 15 13 11 9 7 5 5 6 6 5 3 2 3 3 3 4 7 10 13 14 15 18 21 23 24 24 25 26 25 23 23 23 24 26 27 28 29 28 27 27 26 26 26 25 24 24 24 23 23 23
16 20 22 22 23 23 22 21 22 24 25 25 25 26 26 24 25 27 29 29 29 28 26 26 27 27 25 23 22 20 20 20 18 15 14 14 13 11 9 7 5 5 6 5 3 2 2 2 1 1 4 8 12 13 14 16 19 22 23 23 24 24 25 24 23 23 23 24 26 28 29 29 29 27 27 27 26 25 24 24 24 23 22 22 22
8 14 17 18 18 19 18 18 19 22 24 24 25 26 28 27 27 27 28 29 30 30 29 27 26 25 23 21 20 19 17 16 15 15 15 14 12 10 9 6 5 6 5 3 1 2 2 1 1 1 5 9 11 12 14 16 19 21 22 23 23 23 23 22 23 23 24 25 27 28 29 29 28 27 27 26 26 25 24 24 23 22 21 21 20
17 17 17 17 17 17 17 17 19 20 21 23 24 25 26 28 29 28 28 28 29 29 28 27 26 24 23 21 19 16 14 14 15 16 15 13 12 10 8 6 5 5 4 2 1 1 1 1 1 2 5 8 9 11 13 16 18 20 21 22 22 22 21 21 22 23 23 25 27 28 28 29 28 27 27 26 25 24 24 23 23 22 22 21 20
23 23 22 20 19 18 17 18 20 21 21 22 23 22 24 27 29 28 28 28 27 26 26 26 24 23 22 20 16 13 13 15 16 15 13 12 11 9 7 6 5 4 4 3 3 3 2 2 2 4 6 8 9 11 14 16 18 18 19 20 20 20 19 20 22 22 23 24 26 27 28 28 27 27 26 25 24 24 23 23 22 22 22 21 20
26 26 26 24 23 23 22 22 23 23 24 24 25 25 25 27 28 27 26 25 25 24 24 23 22 21 19 16 13 12 15 17 16 14 13 12 11 9 6 5 3 4 5 5 5 4 3 2 3 5 7 8 10 12 15 16 17 18 18 18 18 17 17 19 21 21 22 23 25 26 26 26 26 25 25 24 23 23 22 22 22 21 21 20 19
27 27 27 26 26 25 25 25 25 26 25 26 26 25 25 25 25 24 23 23 23 23 22 21 19 17 15 14 13 15 17 17 15 14 13 12 10 8 5 3 2 4 6 6 5 4 4 3 4 5 6 8 10 13 15 16 17 18 18 18 17 15 15 17 19 20 21 23 24 24 24 24 24 24 23 23 22 22 21 21 21 20 20 19 18
28 27 26 26 26 25 24 24 25 25 25 24 24 23 23 22 22 22 21 21 20 20 19 18 17 16 16 16 17 18 17 16 14 14 12 10 8 6 3 2 3 5 6 6 5 5 5 4 4 5 6 8 11 14 15 16 17 18 18 17 16 15 15 16 18 19 20 22 23 23 22 22 22 23 22 22 22 21 21 20 20 19 19 18 17
26 26 26 25 25 25 25 24 24 24 24 23 23 22 22 21 21 20 20 19 18 18 18 18 18 18 19 19 18 17 16 15 14 13 11 8 6 3 1 1 4 5 5 4 4 5 5 4 4 5 5 7 11 14 15 16 17 19 19 18 17 15 15 16 17 19 20 22 23 23 22 22 22 22 22 22 22 21 20 20 20 19 19 18 17
23 23 23 24 24 23 23 24 24 24 23 23 23 22 22 21 21 20 20 20 20 20 20 20 20 19 19 18 17 17 16 15 13 11 8 6 3 1 0 2 4 4 4 4 4 5 4 4 5 5 5 7 11 13 15 16 17 19 19 18 17 16 15 16 17 19 20 21 23 23 23 23 22 22 22 22 22 21 20 20 20 19 19 18 17
20 21 21 22 22 22 22 22 23 23 22 22 22 22 22 22 22 22 22 22 21 21 20 20 19 18 17 17 17 16 15 13 11 9 7 4 2 1 1 2 4 5 5 4 4 4 4 5 5 5 5 7 10 12 14 15 17 18 18 18 16 16 15 16 17 19 19 20 22 23 23 23 23 22 22 22 23 22 21 19 19 19 19 18 16
Wind_Direction
183 184 185 187 190 192 199 214 222 225 221 212 210 211 211 215 216 214 208 205 203 199 197 195 189 183 181 181 183 183 182 181 181 183 181 176 173 171 167 162 159 157 151 147 142 136 128 123 114 88 77 68 50 43 37 38 42 41 39 33 29 25 18 19 4 328 337 351 354 358 359 360 4 6 5 6 7 7 7 9 12 17 22 24 23
186 188 187 188 193 197 202 214 222 228 228 218 212 212 211 213 217 218 213 209 207 205 202 201 199 194 189 186 188 191 192 190 189 193 194 191 190 191 189 185 182 183 181 176 172 175 182 167 152 139 111 90 49 31 27 28 30 32 37 31 22 21 13 9 8 350 341 346 351 355 357 360 4 5 4 5 4 3 3 4 5 7 10 13 18
189 191 192 193 198 203 208 214 217 227 232 221 213 212 212 212 214 218 217 212 209 208 207 206 204 202 197 194 194 194 197 198 198 203 207 205 205 207 209 207 202 201 202 202 197 200 208 208 200 199 192 190 211 331 0 356 0 16 26 23 13 13 7 2 4 2 348 343 348 355 357 0 7 7 4 3 2 1 1 2 2 0 1 3 6
194 197 198 199 203 208 212 212 212 223 231 222 213 211 214 214 211 212 213 211 210 209 210 212 213 210 204 199 198 199 200 203 207 211 213 215 216 219 222 223 224 223 218 216 218 220 226 229 228 227 222 214 217 226 244 264 280 315 358 359 355 354 355 355 357 359 353 344 347 356 0 2 8 7 1 359 359 360 359 358 356 354 356 357 359
202 204 205 206 209 213 214 212 214 221 225 218 210 209 216 219 212 207 207 207 209 209 209 217 222 219 214 206 201 203 204 207 214 217 218 221 224 228 230 231 236 240 237 232 229 231 237 240 241 241 239 233 225 228 236 242 251 254 278 312 328 337 344 350 353 354 355 352 350 354 360 3 5 5 3 0 357 355 355 355 355 353 351 350 353
209 208 208 211 217 223 222 220 219 217 212 207 200 199 206 212 207 203 201 197 201 205 210 226 237 231 228 223 214 213 216 218 224 227 226 229 233 236 238 238 241 245 246 243 238 238 242 245 245 241 241 244 237 233 238 240 243 255 271 292 310 325 336 346 352 353 357 2 359 357 0 3 2 3 4 4 2 359 355 350 350 352 351 349 350
211 210 213 217 223 226 215 207 204 199 195 189 183 186 198 204 204 205 204 198 202 215 222 237 247 242 242 242 234 231 235 234 237 239 238 241 244 245 244 245 248 249 250 251 247 244 244 246 247 242 240 244 241 235 236 239 244 255 271 289 303 314 328 339 345 350 356 3 4 1 1 3 2 1 2 3 3 3 1 353 347 347 350 350 349
205 207 208 206 208 203 189 184 187 189 186 177 168 169 180 187 185 187 191 195 210 247 251 245 242 239 245 251 248 248 250 247 248 250 249 250 253 256 255 253 254 254 254 256 256 252 248 248 247 245 243 243 242 238 236 238 242 248 259 276 290 303 320 333 338 344 353 1 4 0 357 359 1 359 358 1 1 359 358 354 345 343 343 343 345
192 195 188 177 171 172 174 175 177 181 181 171 162 163 166 175 191 201 206 211 225 246 248 240 233 233 239 245 248 252 254 251 251 253 255 259 262 265 265 260 259 258 256 257 258 255 252 251 250 248 245 242 241 240 237 239 243 244 250 260 270 289 310 324 330 333 342 352 357 355 351 353 358 357 355 359 358 349 345 345 342 340 338 336 339
150 154 150 144 145 151 161 168 166 167 171 168 173 192 204 217 230 230 225 223 224 230 234 230 226 231 240 245 245 248 250 249 253 260 268 272 271 269 269 267 267 266 264 262 260 257 255 254 254 250 245 240 237 235 232 233 237 243 252 257 262 276 297 313 315 309 321 338 343 344 343 344 349 351 348 347 344 338 338 340 339 337 338 336 336
167 168 164 163 166 169 175 178 176 178 182 185 196 208 211 216 221 217 213 212 215 224 230 228 226 231 240 245 246 249 252 257 268 281 289 292 290 284 281 279 278 277 275 271 267 264 260 256 253 249 242 236 231 228 226 226 230 239 251 257 263 277 295 304 290 274 289 311 317 322 324 327 334 340 338 334 333 332 334 335 334 335 338 337 329
215 206 187 177 179 180 181 184 189 188 186 194 208 210 208 211 209 203 201 206 213 223 228 228 228 233 239 244 249 254 260 269 281 300 314 320 317 310 302 295 289 284 281 278 275 271 266 259 253 246 238 231 226 219 213 215 229 242 247 254 264 280 296 298 284 274 282 292 296 302 305 311 322 329 328 327 326 326 327 327 329 331 329 326 317
132 197 185 178 181 181 181 185 189 190 194 207 214 206 204 206 202 198 203 212 215 218 223 226 229 234 239 242 246 250 257 271 294 318 328 332 329 320 312 304 296 289 285 281 278 273 267 261 252 239 228 222 216 209 204 212 234 241 242 251 263 279 292 292 287 285 287 289 290 297 302 304 308 315 319 321 321 322 323 322 324 324 320 317 313
46 106 177 191 197 195 194 195 195 197 202 206 203 197 200 204 202 205 215 221 218 214 217 223 223 225 228 224 220 225 234 264 301 322 329 332 333 327 316 306 299 294 291 286 279 272 264 258 246 228 216 210 207 207 211 221 234 237 241 252 262 272 277 276 276 277 278 280 281 285 291 293 298 307 312 317 319 320 320 320 320 318 314 312 310
24 37 85 174 194 199 202 201 198 197 193 188 187 190 194 195 195 198 202 204 205 204 204 206 206 205 203 198 204 224 250 291 314 326 331 336 342 340 332 323 314 308 306 302 292 276 259 250 240 224 212 207 207 211 216 221 235 244 248 251 255 259 263 267 269 268 266 266 268 274 281 290 300 307 309 313 317 317 316 315 314 313 312 311 310
20 18 26 58 134 154 165 168 162 159 159 158 159 161 162 162 161 161 161 159 163 168 169 173 178 180 185 199 221 251 284 303 315 321 327 339 351 356 352 342 332 323 319 315 305 283 257 245 238 225 215 214 214 215 215 220 238 248 249 248 251 256 260 263 262 261 261 262 266 274 281 291 302 307 310 313 315 318 318 315 315 316 317 315 313
16 14 16 21 76 128 133 135 135 135 138 140 141 142 143 143 141 139 139 136 136 139 142 148 164 182 200 233 261 274 284 293 301 310 321 335 349 357 359 352 341 334 329 320 305 279 246 234 228 219 214 216 217 219 222 225 232 241 246 249 251 253 255 257 258 262 271 275 279 286 290 296 302 305 310 314 316 320 321 319 324 326 321 316 313
359 2 9 9 354 237 164 154 150 147 144 142 145 147 146 143 144 145 145 137 129 130 136 141 166 211 233 249 259 263 267 272 278 293 313 329 340 350 355 350 344 340 334 315 202 183 175 183 198 205 207 210 213 216 219 222 228 237 245 247 246 247 249 251 260 272 282 288 291 293 296 300 304 306 311 314 316 319 317 317 323 320 311 307 304
349 349 355 359 350 321 242 211 203 200 195 175 167 166 162 158 160 159 153 143 126 120 121 120 144 200 225 232 234 237 241 247 254 269 300 321 332 341 339 331 324 265 197 168 159 154 148 149 164 185 194 197 202 208 211 221 234 240 242 245 249 256 264 272 279 285 290 295 298 300 303 307 310 313 315 315 315 313 307 305 307 304 299 298 298
341 339 338 345 346 336 318 255 217 210 213 207 191 182 180 183 194 195 181 169 152 136 131 120 124 188 221 225 224 223 226 232 236 240 258 292 311 315 307 292 268 234 213 199 188 181 173 162 158 168 185 191 198 210 220 236 247 249 255 267 276 281 285 291 294 298 302 305 306 309 312 314 316 316 316 315 313 311 303 297 294 294 294 294 294
321 324 327 335 333 322 332 329 247 216 209 204 199 196 195 198 205 209 205 198 188 173 158 142 148 204 223 227 225 220 219 224 227 227 231 249 275 288 290 283 268 249 238 233 225 210 193 176 157 151 160 164 164 180 221 264 281 294 302 304 302 298 298 301 304 306 310 311 312 314 315 316 316 316 316 316 316 313 306 298 293 292 293 293 293
302 304 308 316 314 305 314 328 295 227 211 199 196 197 200 206 210 207 202 200 192 177 166 170 198 225 239 242 236 227 220 217 217 219 225 238 260 274 278 270 258 253 251 239 221 197 174 159 149 144 142 136 120 65 339 331 329 331 329 320 309 305 305 308 310 312 313 314 316 316 318 319 320 320 320 320 319 316 311 304 298 294 292 292 292
286 288 291 294 294 291 296 300 281 238 222 207 197 188 181 188 197 198 194 192 189 183 187 205 219 226 232 235 231 224 217 212 212 217 227 238 248 257 261 254 244 246 247 225 194 170 155 151 150 152 158 237 321 325 328 332 332 328 322 315 312 312 314 316 316 316 317 319 319 319 321 323 322 322 321 320 318 315 311 306 302 297 294 293 292
283 278 275 276 279 278 278 278 274 269 268 263 248 230 215 198 188 190 192 191 192 194 199 206 213 218 220 219 215 210 208 209 212 218 226 235 243 248 247 241 238 236 219 180 163 161 161 162 171 206 284 309 319 323 327 331 331 324 316 317 320 322 322 322 322 322 322 322 322 321 322 322 321 320 320 318 315 311 307 304 301 299 297 296 295
296 284 273 268 266 265 263 264 267 268 270 268 257 242 234 228 216 207 203 197 198 202 204 209 214 218 220 219 212 203 201 205 210 214 221 227 230 234 233 229 228 222 180 156 157 167 177 189 220 284 317 335 349 0 11 23 26 24 10 347 333 329 327 327 327 326 325 325 324 322 321 321 321 320 318 316 313 310 308 306 303 301 300 299 298
297 296 287 273 263 259 256 256 256 255 256 256 251 242 234 228 220 216 211 203 202 207 212 216 218 220 220 217 207 199 197 203 208 210 214 218 218 217 214 206 198 183 155 149 155 165 172 182 210 46 61 62 58 58 57 53 46 32 7 348 339 335 335 335 334 333 331 329 326 322 321 321 321 319 318 316 312 310 310 309 306 303 303 302 300
286 287 289 284 272 261 256 254 252 250 249 246 238 231 225 220 215 211 206 201 203 209 218 225 228 228 222 211 202 198 200 205 210 209 207 206 204 202 197 189 181 173 156 143 141 139 133 123 109 101 97 85 68 55 44 29 14 1 352 347 345 343 341 340 336 334 331 329 325 322 321 321 319 318 317 316 313 312 313 310 305 303 303 302 298
280 278 279 281 281 272 260 253 251 254 252 238 221 212 211 212 213 213 213 220 229 232 232 236 241 242 231 214 203 201 205 211 213 212 208 206 202 198 191 184 176 172 166 145 129 126 128 127 122 113 97 66 39 24 17 12 6 360 354 350 347 343 340 336 333 331 330 328 325 323 322 320 319 318 317 314 313 313 312 309 304 301 301 299 294
275 272 271 270 270 272 271 256 245 251 250 234 218 210 209 210 214 220 226 235 239 239 239 241 245 246 237 225 216 215 219 223 220 212 210 211 209 202 192 183 177 172 158 140 135 135 134 127 114 91 52 30 23 20 17 11 3 358 354 350 347 345 341 337 334 333 332 329 326 324 322 321 319 317 315 312 310 311 310 305 301 300 299 295 289
273 270 269 269 265 261 259 257 256 267 260 239 223 214 210 208 211 215 219 224 227 227 228 229 235 237 232 230 231 234 239 238 221 206 202 199 196 193 186 179 173 155 141 139 139 137 128 108 81 60 44 36 32 28 19 8 359 355 353 352 351 350 346 344 341 338 335 332 328 325 324 322 318 316 313 309 307 307 306 303 299 297 293 289 285
277 273 269 270 269 264 259 257 258 265 263 243 225 216 211 210 210 212 213 213 213 214 214 210 209 216 223 230 233 233 233 226 209 200 192 185 183 183 176 169 157 141 143 146 137 121 104 88 75 62 50 42 36 26 14 5 1 358 356 357 358 356 351 348 345 341 338 336 333 330 326 322 318 315 311 307 305 304 303 301 298 293 288 285 282
273 272 270 268 269 268 265 259 251 247 251 244 228 219 213 207 203 203 202 200 199 203 206 206 208 213 221 229 230 224 216 204 195 189 181 178 180 174 162 154 143 137 146 148 126 104 88 79 74 63 47 39 32 20 10 6 5 5 3 0 357 354 351 347 344 341 340 338 334 329 325 320 316 312 309 306 304 301 299 298 295 292 288 285 282
264 265 266 266 266 265 263 259 249 242 240 236 225 217 214 210 203 191 179 179 187 192 194 197 203 211 214 215 217 217 208 193 184 179 176 174 172 163 151 142 132 131 141 137 114 99 88 78 72 60 45 35 23 13 10 11 12 10 4 357 351 348 347 345 342 339 337 334 330 324 321 317 314 310 308 305 302 298 296 294 293 291 288 285 283
258 258 259 260 263 263 260 257 249 239 232 229 225 223 220 214 205 193 176 165 164 170 175 180 185 192 199 201 203 202 194 182 175 173 171 167 162 155 147 138 128 124 128 120 106 99 93 82 70 56 40 26 17 14 17 18 12 4 357 352 348 346 344 342 340 336 334 331 327 323 319 315 311 307 303 301 299 296 294 293 292 289 286 284 283
253 253 252 252 253 255 255 253 250 243 236 230 225 222 218 211 201 192 184 174 164 159 161 167 174 183 192 194 190 185 179 172 168 166 164 161 157 152 147 140 135 131 126 114 103 97 92 79 63 47 30 19 19 23 22 15 6 359 354 350 347 344 342 340 337 335 332 329 324 320 316 311 308 304 301 298 297 295 294 293 291 288 286 284 282
249 247 246 243 242 244 246 246 245 242 239 232 224 216 212 207 200 192 186 179 170 163 161 163 166 171 175 177 176 173 170 165 162 161 160 160 158 157 157 155 148 140 131 117 105 100 92 72 51 36 27 25 30 30 20 8 0 356 352 348 344 342 340 337 334 331 328 325 320 316 312 309 306 304 302 300 298 296 294 293 291 289 287 285 283
245 243 241 239 236 235 236 237 236 235 235 231 224 216 209 204 197 188 180 173 168 165 164 163 160 157 157 161 164 163 160 158 158 158 159 158 158 159 162 159 151 142 133 124 116 112 96 70 49 39 37 41 40 27 12 3 357 352 349 346 343 340 337 333 331 328 324 321 317 313 310 307 307 307 306 302 300 299 297 296 295 292 290 288 285
240 238 237 236 233 230 229 228 226 227 228 227 223 217 209 199 190 183 176 170 168 166 164 162 161 157 155 155 157 156 154 153 154 154 152 153 154 154 153 150 146 142 137 132 131 127 102 78 63 59 60 52 36 17 4 358 354 349 347 346 342 339 335 332 329 326 322 319 316 313 311 310 312 313 311 306 303 302 301 300 298 295 292 291 287
238 235 233 231 229 226 224 221 218 218 218 217 214 209 201 190 181 175 170 167 167 166 163 161 160 158 156 155 155 154 153 152 152 150 149 150 154 155 152 149 147 144 141 141 143 134 110 95 88 83 70 45 22 9 0 355 352 349 348 345 340 336 334 331 327 324 322 320 318 317 315 316 317 317 314 310 306 305 304 303 300 297 294 292 288
235 231 228 225 221 220 219 216 213 211 209 206 203 199 192 184 176 172 170 166 164 163 162 160 159 159 158 157 157 158 158 156 155 154 153 155 157 157 156 156 155 148 145 146 146 138 122 111 102 87 61 28 10 3 358 354 351 349 346 343 338 335 333 331 327 324 324 325 324 322 320 320 321 320 317 315 312 310 309 306 305 303 299 295 293
234 225 220 217 214 211 210 210 208 205 202 200 198 194 188 180 173 171 169 165 161 159 159 159 158 158 158 160 163 167 167 162 158 159 161 162 163 161 161 161 156 146 148 150 149 147 134 117 107 84 39 11 2 360 357 354 350 347 344 341 337 335 334 333 331 329 330 331 331 328 326 325 324 322 319 317 317 316 314 311 310 308 305 302 299
229 214 206 204 200 196 195 198 198 197 195 194 192 189 184 177 170 167 163 158 156 155 154 154 156 158 160 163 167 170 168 163 163 166 167 166 166 165 163 160 149 145 151 152 143 127 116 114 127 49 12 4 359 359 358 353 349 345 342 339 336 336 336 336 336 336 337 337 335 333 331 329 328 325 322 321 320 320 319 317 316 314 311 309 307
164 175 178 179 177 177 180 183 183 184 183 181 180 181 179 174 168 163 156 152 152 153 153 154 157 159 161 164 167 169 169 169 170 171 167 166 166 166 162 157 151 153 159 158 133 117 110 117 172 0 6 2 360 360 357 351 346 343 340 336 335 337 338 340 341 343 343 339 338 337 336 333 330 328 326 325 324 324 324 324 323 321 319 317 315
105 121 135 147 154 159 164 168 168 168 170 169 169 170 168 162 158 155 151 149 151 153 155 157 160 161 162 164 167 168 170 171 170 168 166 166 166 165 163 160 161 167 173 180 191 202 221 255 286 344 354 357 360 0 354 348 345 343 339 335 336 339 342 344 346 347 345 341 340 340 339 335 333 331 329 329 328 327 327 329 329 329 328 328 326
96 104 112 120 126 131 137 145 149 150 151 151 150 149 148 146 146 147 147 147 149 153 156 160 163 163 163 165 168 170 171 170 168 166 166 166 166 166 164 164 171 186 192 196 210 233 248 263 307 333 344 353 0 359 352 349 348 345 340 338 338 340 344 347 347 347 345 342 341 341 340 337 335 334 332 332 332 331 331 334 336 336 335 334 332
89 95 100 103 106 110 114 120 127 130 132 132 131 131 133 136 138 141 143 146 151 155 158 160 162 163 165 169 174 176 173 170 167 165 165 166 166 167 169 174 189 205 204 204 216 236 246 267 313 332 341 353 1 359 353 351 351 348 345 343 341 341 344 347 346 345 345 343 342 342 342 340 339 338 337 337 337 336 337 340 343 343 341 339 340
84 87 92 95 98 101 105 109 113 116 119 121 122 124 126 129 134 140 146 151 155 157 157 158 161 165 168 171 173 170 167 166 164 163 163 165 166 169 177 194 208 202 199 202 215 233 244 266 307 326 339 354 1 359 355 354 354 351 349 348 346 343 343 346 347 346 345 343 344 345 345 343 344 344 344 343 343 342 343 346 349 350 349 348 349
85 87 89 92 95 98 103 108 112 114 116 119 121 124 126 132 138 143 147 151 153 154 155 157 160 163 164 162 161 161 160 161 161 160 161 164 167 170 183 210 191 187 193 203 219 233 243 261 296 317 337 356 2 360 358 357 356 354 353 353 352 348 345 346 348 348 346 346 349 350 350 349 350 350 351 350 349 348 348 349 352 356 356 355 355
88 90 92 93 95 98 102 107 111 114 117 120 121 123 127 131 134 136 139 142 144 146 149 151 152 154 155 155 155 157 158 158 157 158 160 163 165 164 156 160 170 178 187 200 218 229 234 251 284 307 334 358 2 0 359 359 358 357 356 356 354 351 347 347 349 350 348 350 352 354 354 355 356 357 358 358 356 355 354 354 357 1 2 0 359
86 89 91 92 94 97 101 105 108 111 115 118 119 119 121 123 125 128 132 135 136 138 142 145 147 149 152 153 154 156 157 156 157 159 161 161 159 155 59 149 159 165 171 186 206 219 228 248 275 297 332 357 1 359 359 359 359 360 359 357 353 350 347 347 349 351 352 353 355 356 356 358 360 1 3 4 3 2 1 1 3 7 8 6 3
87 89 90 92 94 97 100 102 104 107 111 114 116 117 118 120 121 124 128 130 132 134 137 140 143 146 148 151 153 155 155 156 158 159 159 155 151 343 3 113 141 151 160 175 200 219 233 251 269 289 328 352 357 356 355 356 359 1 1 357 352 347 344 345 348 352 353 355 356 357 357 359 1 3 5 7 7 7 7 7 8 9 11 11 9